Location: Fort Frances
(48.6170°N, 93.4170°W)
Time: 03:55:01
(UTC-05:00)

Daily predictions for brighter satellites

Satellite Brightness Start Highest point End
(mag) Time Altitude Azimuth Time Altitude Azimuth Time Altitude Azimuth
Cosmos 1486 Rocket 4.3 00:01:13 10° NNW 00:06:22 58° ENE 00:06:22 58° ENE
Cosmos 2369 Rocket 2.6 00:01:32 10° NW 00:07:03 51° WSW 00:07:06 51° WSW
Cosmos 2263 4.2 00:02:30 10° NNW 00:08:00 67° WSW 00:08:00 67° WSW
SL-19 R/B 4.4 00:10:58 10° NNE 00:17:05 73° ESE 00:17:19 72° ESE
CZ-2C R/B 2.8 00:15:28 10° N 00:20:47 68° WNW 00:21:04 66° W
ADEOS Rocket 4.0 00:15:38 10° NNE 00:21:54 35° E 00:21:59 35° E
Cosmos 1110 Rocket 4.1 00:23:09 77° N 00:23:09 77° N 00:28:07 10° NNE
Meteor 1-5 Rocket 4.2 00:18:05 10° N 00:23:09 70° NE 00:23:09 70° NE
RESURS DK-1 4.2 00:19:54 10° NW 00:22:09 26° WNW 00:22:09 26° WNW
Terra 3.9 00:27:10 18° W 00:27:24 18° W 00:30:37 10° NW
Cosmos 1271 Rocket 4.3 00:24:03 10° N 00:26:25 35° N 00:26:25 35° N
Cosmos 2173 Rocket 3.8 00:28:34 79° SE 00:28:51 82° E 00:35:13 10° N
Cosmos 1725 Rocket 4.4 00:30:33 46° E 00:30:33 46° E 00:36:21 10° NNE
CZ-4C R/B 2.8 00:29:46 36° W 00:31:48 55° NW 00:38:00 10° NE
USA 234 3.3 00:32:58 57° SW 00:32:58 57° SW 00:39:15 10° WNW
Mayak 0.3 00:31:07 10° NNE 00:33:35 32° NE 00:33:35 32° NE
ATLAS 5 CENTAUR R/B 3.0 00:30:40 10° NW 00:35:41 44° WSW 00:35:41 44° WSW
Cosmos 1461 4.2 00:34:15 10° NW 00:37:30 41° WNW 00:37:30 41° WNW
Cosmos 2016 Rocket 3.8 00:43:23 76° E 00:43:24 76° E 00:49:32 10° NNE
Okean 2 Rocket 4.2 00:39:39 10° NNW 00:42:47 41° NW 00:42:47 41° NW
SeaSat 1 2.7 00:48:48 64° NNW 00:48:48 64° NNW 00:52:58 10° NNW
CZ-4B R/B 4.0 00:44:04 10° NNE 00:47:42 51° NE 00:47:42 51° NE
Lacrosse 5 3.7 00:46:49 10° WNW 00:48:54 22° W 00:48:54 22° W
Cosmos 1354 Rocket 4.2 00:47:41 10° NNW 00:52:24 67° NNE 00:52:24 67° NNE
Okean 1-7 4.5 00:56:32 33° NW 00:56:32 33° NW 00:59:39 10° N
Tsikada Rocket 3.9 00:52:36 10° N 00:58:52 81° E 00:59:03 80° ESE
Cosmos 1459 Rocket 4.1 01:00:27 59° W 01:00:55 60° WNW 01:06:59 10° N
Lacrosse 4 Rocket 4.2 00:59:41 10° N 01:02:29 16° NE 01:05:06 11° ENE
CZ-4B R/B 4.4 01:13:55 14° NE 01:13:55 14° NE 01:15:09 10° NNE
Cosmos 1302 Rocket 4.3 01:15:03 60° NW 01:15:03 60° NW 01:19:48 10° NNE
Cosmos 1943 Rocket 4.0 01:14:50 10° NW 01:17:39 19° W 01:17:39 19° W
H-2A R/B 3.7 01:22:29 28° WNW 01:22:29 28° WNW 01:25:13 10° NNW
Cosmos 1975 4.4 01:21:33 10° N 01:24:06 35° NNE 01:24:06 35° NNE
Cosmos 1816 Rocket 4.5 01:21:21 10° NNW 01:27:31 70° W 01:27:32 70° W
Cosmos 2346 Rocket 4.5 01:31:22 10° NNW 01:37:34 68° W 01:37:37 68° W
Gblst 52 Del rocket 4.3 01:39:02 65° WNW 01:39:39 72° NNW 01:45:36 10° ENE
USA 267 4.0 01:33:35 10° ENE 01:39:49 49° NNW 01:46:04 10° W
Cosmos 968 Rocket 3.8 01:38:55 10° NNW 01:43:17 61° NW 01:43:17 61° NW
Meteor 2-20 4.4 01:39:19 10° N 01:45:25 72° ENE 01:45:49 69° ESE
Cosmos 2278 4.5 01:43:47 10° NNW 01:49:16 47° NE 01:50:51 37° E
COSMOS 2406 3.2 01:50:43 74° ENE 01:50:43 74° ENE 01:56:07 10° NNE
Meteor 1-18 Rocket 4.1 01:51:58 81° NW 01:51:58 81° NW 01:57:29 10° N
Cosmos 1980 Rocket 4.1 01:47:37 10° N 01:52:15 26° NE 01:56:53 10° E
Meteor 1-12 Rocket 4.1 01:46:46 10° NNW 01:52:19 86° NNW 01:52:19 86° NNW
Cosmos 2233 Rocket 3.9 01:53:06 71° W 01:53:20 72° W 01:59:30 10° N
USA 32 4.3 01:48:20 10° N 01:52:57 63° NW 01:52:57 63° NW
Cosmos 1464 Rocket 4.3 01:53:39 53° ESE 01:54:18 55° E 02:00:25 10° NNE
Cosmos 1697 Rocket 3.9 01:49:42 10° NNW 01:55:02 39° NE 01:57:47 24° ESE
SL-16 R/B 4.0 01:51:48 16° ESE 01:55:50 31° ENE 02:01:14 10° N
Cosmos 2082 Rocket 3.7 02:06:40 24° ESE 02:06:56 25° ESE 02:11:25 10° NE
ADEOS Rocket 3.6 02:00:55 10° N 02:07:39 51° WNW 02:08:56 45° W
BREEZE-M R/B 4.1 02:08:27 63° SW 02:09:29 81° SSE 02:15:21 10° ENE
Meteor 1-19 Rocket 4.2 02:09:57 71° ESE 02:10:09 72° E 02:15:57 10° NNE
Mayak 1.0 02:07:43 10° NNW 02:10:12 17° NW 02:10:12 17° NW
Nadezhda 4 Rocket 4.4 02:06:23 10° N 02:12:24 55° ENE 02:13:59 44° ESE
Geosat 4.3 02:07:51 10° NNE 02:12:49 58° NW 02:12:50 58° NW
Cosmos 1513 Rocket 4.4 02:15:05 64° SE 02:15:45 70° E 02:21:48 10° NNE
Cosmos 1891 Rocket 4.3 02:18:52 67° SE 02:19:31 73° E 02:25:34 10° NNE
Cosmos 1656 3.7 02:15:38 10° NNW 02:21:23 80° ENE 02:22:01 70° SE
CZ-4C R/B 4.5 02:17:03 10° WNW 02:21:47 24° NNW 02:27:08 10° NE
Resurs 1-4 Rocket 3.8 02:18:06 10° NE 02:22:15 23° E 02:23:33 21° ESE
Landsat 5 4.1 02:25:35 56° NNW 02:25:35 56° NNW 02:29:14 10° NNW
Cosmos 1975 Rocket 3.7 02:28:56 50° NNW 02:28:56 50° NNW 02:32:31 10° N
Cosmos 1340 Rocket 4.4 02:28:57 29° ENE 02:28:57 29° ENE 02:31:50 10° NNE
Cosmos 1455 Rocket 3.7 02:25:05 10° N 02:28:26 52° NNW 02:28:26 52° NNW
Cosmos 909 Rocket 3.9 02:26:37 10° NW 02:32:56 84° SW 02:34:29 55° SSE
Cosmos 1072 Rocket 4.5 02:35:11 63° SW 02:36:07 73° W 02:42:35 10° N
SL-08 R/B 4.0 02:37:49 42° ESE 02:38:55 50° ENE 02:43:39 10° N
PSLV R/B 4.2 02:36:28 10° N 02:40:00 47° NW 02:40:00 47° NW
Cosmos 2369 3.5 02:35:37 10° NNW 02:41:15 72° WSW 02:41:17 72° WSW
Meteor 1-13 Rocket 4.0 02:41:13 74° SW 02:41:42 81° WNW 02:47:27 10° N
Lacrosse 4 Rocket 1.8 02:37:29 10° NNW 02:41:23 65° N 02:41:23 65° N
Cosmos 1833 Rocket 3.1 02:41:36 47° SE 02:42:16 49° ESE 02:47:42 10° NE
Cosmos 1025 Rocket 4.5 02:42:56 28° E 02:43:20 29° E 02:47:01 10° NNE
UNK 4.4 02:44:08 45° ESE 02:44:58 51° ENE 02:49:26 10° N
CZ-4B R/B 3.6 02:47:21 22° NNW 02:47:21 22° NNW 02:48:47 10° NNW
SL-24 R/B 4.5 02:42:43 10° N 02:48:03 65° WNW 02:48:08 65° WNW
Meteor 2-9 Rocket 4.5 02:51:58 10° NNW 02:57:07 48° W 02:57:07 48° W
AQUA 4.4 02:52:40 10° NNE 02:57:18 48° E 02:58:01 45° SE
Cosmos 2084 Rocket 3.8 02:59:51 55° NW 02:59:51 55° NW 03:03:53 10° NE
Cosmos 1536 Rocket 3.5 03:00:33 79° N 03:00:33 79° N 03:04:41 10° N
Iridium 4 Rocket 3.6 03:00:48 46° ESE 03:01:23 50° E 03:05:47 10° NNE
Gbstr 26 Del rocket 4.2 02:59:09 42° WSW 03:02:11 86° SSE 03:09:10 10° ENE
Cosmos 2360 4.4 02:57:21 10° NNW 03:03:04 69° ENE 03:07:09 19° SE
Cosmos 1515 4.1 03:05:02 60° N 03:05:02 60° N 03:08:14 10° N
Cosmos 1607 4.0 03:04:44 53° SSW 03:06:22 78° SE 03:12:54 10° NE
Lacrosse 5 rocket 1.7 03:11:25 54° ESE 03:11:25 54° ESE 03:15:04 10° ENE
ARIANE 5 R/B 3.7 03:06:35 10° NNE 03:11:27 37° E 03:13:42 25° SE
Cosmos 2034 Rocket 4.2 03:10:41 48° WSW 03:12:05 58° WNW 03:18:15 10° N
Cosmos 1867 3.7 03:08:48 10° NW 03:13:50 53° WSW 03:13:50 53° WSW
PSLV R/B 4.1 03:14:01 61° ESE 03:14:30 68° ENE 03:18:33 10° N
MOS 1 Rocket 4.3 03:12:09 10° N 03:16:17 33° WNW 03:16:34 33° WNW
Cosmos 332 Rocket 3.7 03:16:28 67° WSW 03:16:57 73° WNW 03:21:46 10° NNE
Cosmos 371 Rocket 3.2 03:17:11 67° WSW 03:17:45 77° WNW 03:22:37 10° NNE
Okean 2 3.3 03:19:40 79° SE 03:19:46 81° E 03:23:54 10° NNE
Cosmos 1092 Rocket 3.9 03:13:51 10° NNW 03:20:04 72° W 03:22:10 44° SSW
USA 267 4.3 03:16:03 10° ENE 03:22:09 44° N 03:28:16 10° WNW
Meteor 1-23 Rocket 4.2 03:20:46 51° SW 03:22:10 72° WNW 03:27:53 10° N
Meteor 2-4 Rocket 4.1 03:21:42 41° W 03:22:30 44° WNW 03:27:38 10° N
CZ-2D R/B 2.2 03:21:24 10° NNE 03:26:50 75° ESE 03:28:40 42° S
Gblst 52 Del rocket 4.5 03:26:06 10° WNW 03:31:47 73° NNE 03:38:09 10° E
SL-27 R/B 4.1 03:33:27 23° NW 03:33:27 23° NW 03:35:41 10° N
Cosmos 1726 Rocket 4.2 03:28:51 10° N 03:33:06 52° ENE 03:35:31 23° SE
Cosmos 2278 4.5 03:28:15 10° NW 03:32:43 32° W 03:32:43 32° W
Cosmos 1980 Rocket 2.1 03:31:11 10° NNW 03:36:47 70° WSW 03:39:51 28° S
IRS-1D 3.6 03:32:47 10° NNE 03:37:58 79° ESE 03:40:00 38° S
Cosmos 1428 Rocket 4.5 03:32:39 10° N 03:38:54 80° E 03:43:28 19° SSE
Cosmos 1697 Rocket 3.1 03:33:45 10° NW 03:39:02 41° WSW 03:39:28 41° WSW
SL-16 R/B 2.6 03:36:53 38° SSW 03:39:09 57° WSW 03:45:21 10° NNW
IRS-1C 4.0 03:37:38 10° NNE 03:43:01 82° WNW 03:45:00 40° SSW
H-2A R/B 2.8 03:42:43 10° N 03:46:51 51° WNW 03:47:33 46° WSW
ADEOS II 3.8 03:42:38 10° NE 03:47:12 29° E 03:51:43 10° SSE
Okean 1-7 Rocket 3.6 03:46:30 42° S 03:48:00 81° E 03:52:34 10° NNE
ADEOS 4.4 03:44:36 10° NNE 03:49:39 46° E 03:53:17 18° SSE
SL-16 R/B 2.8 03:44:12 10° NNW 03:49:49 58° ENE 03:55:24 10° SE
Cosmos 2082 Rocket 2.4 03:48:31 37° WSW 03:50:36 61° WNW 03:56:14 10° NNE
UNKNOWN OBJECT B 3.8 03:48:18 10° NNE 03:51:59 40° E 03:53:49 24° SSE
Cosmos 304 Rocket 3.7 03:50:21 41° SSW 03:52:02 85° ESE 03:56:54 10° NNE
Cosmos 2058 Rocket 3.5 03:50:02 10° N 03:54:25 62° ENE 03:58:12 14° SSE
Cosmos 1544 3.0 03:52:02 10° NNW 03:55:42 67° W 03:56:06 61° SW
Cosmos 2228 3.1 03:54:07 10° N 03:58:26 72° E 04:01:28 19° SSE
Cosmos 1606 Rocket 3.4 03:57:01 10° NNW 04:01:19 67° W 04:02:57 36° SSW
MOZ.5/SAFIR/RUBIN 5/SL-8 4.0 04:00:06 38° SSW 04:01:30 51° W 04:06:09 10° NNW
Resurs 1-4 Rocket 2.3 03:57:17 10° N 04:02:27 57° WNW 04:04:38 33° SW
Meteor 1-22 Rocket 4.2 03:57:24 10° NNW 04:03:26 81° W 04:08:33 14° S
Cosmos 1340 Rocket 4.1 04:04:33 24° WNW 04:04:51 24° WNW 04:08:07 10° NNW
Cosmos 2322 Rocket 2.5 03:59:42 10° NNW 04:05:23 70° ENE 04:10:59 10° SE
ATLAS 3B R/B 3.7 04:03:31 15° S 04:08:56 41° ESE 04:15:20 10° NE
Cosmos 1634 Rocket 4.3 04:09:33 28° SW 04:12:34 49° WNW 04:18:40 10° N
SJ 16-02 3.0 04:09:08 10° N 04:13:15 36° ENE 04:17:19 10° SE
Cosmos 1892 Rocket 3.5 04:15:29 27° SSW 04:17:54 84° W 04:22:20 10° N
Cosmos 1763 Rocket 3.8 04:14:42 20° S 04:18:18 68° ESE 04:23:36 10° NNE
ATLAS CENTAUR R/B 3.3 04:14:44 10° NNW 04:18:41 35° NE 04:22:53 10° ESE
Cosmos 1842 3.5 04:16:46 21° S 04:19:18 68° E 04:23:15 10° NNE
COSMOS 2487 3.0 04:18:57 35° W 04:19:44 42° WNW 04:23:07 10° N
Lacrosse 4 Rocket 3.8 04:17:32 10° WNW 04:17:39 10° WNW 04:17:39 10° WNW
Cosmos 1025 Rocket 4.0 04:19:49 26° W 04:20:53 29° WNW 04:24:41 10° N
Cosmos 2279 Rocket 4.1 04:21:32 22° SSW 04:25:43 63° WNW 04:31:58 10° N
Cosmos 1833 Rocket 3.7 04:23:18 20° W 04:26:24 34° NW 04:31:32 10° NNE
USA 215 4.3 04:21:33 10° ENE 04:27:28 36° SE 04:32:57 12° SSW
Cosmos 1898 Rocket 4.0 04:24:38 10° NW 04:29:23 37° WSW 04:32:39 18° SSW
Cosmos 2208 Rocket 4.3 04:27:00 25° SW 04:29:55 52° WNW 04:35:04 10° NNE
Cosmos 1805 3.2 04:27:36 10° NNW 04:31:29 62° W 04:34:26 16° S
Cosmos 1953 3.1 04:28:22 10° N 04:32:23 55° ENE 04:36:23 10° SSE
Cosmos 44 3.5 04:29:08 10° NW 04:34:13 54° WSW 04:39:26 10° SSE
Cosmos 1766 3.9 04:35:06 10° NNW 04:38:39 35° W 04:40:19 23° SW
Cosmos 1937 Rocket 3.9 04:34:47 10° NW 04:39:39 41° WSW 04:44:26 10° S
Cosmos 1125 Rocket 4.1 04:37:04 10° NNW 04:42:22 62° ENE 04:47:37 10° SE
Aureole 2 Rocket 3.5 04:41:34 10° NNW 04:45:24 54° ENE 04:48:59 10° SE
Gbstr 26 Del rocket 4.5 04:42:21 10° W 04:49:59 68° N 04:56:20 10° E
Lacrosse 5 rocket 2.4 04:47:05 14° W 04:50:22 38° NNW 04:54:09 10° NE
ARIANE 5 R/B 3.4 04:45:47 10° N 04:50:32 36° WNW 04:54:03 16° WSW
Cosmos 724 4.3 04:48:13 17° SW 04:52:44 75° NW 04:58:35 10° NE
Okean O Rocket 3.9 04:51:06 10° NE 04:54:38 23° E 04:58:08 10° SSE
Timation 2 Rocket 3.9 04:52:40 14° SSW 04:57:59 80° WNW 05:04:01 10° NNE
Cosmos 1758 3.4 04:54:42 10° NNW 04:58:36 57° W 05:02:30 10° S
Helios 1A Rocket 4.0 04:57:14 10° N 05:00:53 30° WNW 05:03:39 15° WSW
CZ-2D R/B 4.2 04:58:49 10° N 05:02:33 35° WNW 05:05:36 14° SW
Cosmos 44 Rocket 3.7 04:58:22 10° NW 05:03:14 45° WSW 05:08:10 10° S
USA 267 3.7 04:58:11 10° ESE 05:04:41 68° NNE 05:11:11 10° NW
Cosmos 1814 Rocket 4.2 05:01:04 14° SW 05:05:25 54° WNW 05:10:32 10° NNE
Cosmos 2266 Rocket 4.1 05:00:09 10° NNW 05:06:01 52° W 05:11:54 10° SSW
Cosmos 372 Rocket 3.9 05:01:03 10° NNW 05:06:19 82° WSW 05:11:30 10° SSE
CZ-2D R/B 3.7 05:02:28 10° NNW 05:06:19 20° WNW 05:09:59 11° WSW
Cosmos 1733 3.3 05:04:01 10° NNW 05:07:49 53° W 05:11:35 10° S
USA 238 DEB 3.8 05:05:08 12° SW 05:11:42 86° NW 05:18:45 10° NE
USA 238 3.8 05:05:12 11° SW 05:11:48 86° NW 05:18:51 10° NE
DNEPR-1 R/B 3.9 05:11:31 10° SSW 05:15:41 65° SE 05:20:23 10° NE
PSLV R/B 3.5 05:13:24 10° NNE 05:17:40 87° ESE 05:21:51 10° SSW
Cosmos 2360 Rocket 2.1 05:12:40 10° NNW 05:18:19 76° WSW 05:23:55 10° SSE
Cosmos 1980 Rocket 3.9 05:18:07 10° WNW 05:19:44 11° W 05:21:20 10° WSW
BREEZE-M R/B 3.5 05:18:18 12° WSW 05:21:41 71° SSE 05:28:56 10° ENE
UNKNOWN OBJECT B 4.4 05:23:22 10° NNW 05:26:12 20° WNW 05:29:00 10° WSW
ADEOS II 2.5 05:22:05 10° N 05:27:05 45° WNW 05:32:04 10° SW
Cosmos 1812 Rocket 3.8 05:23:33 10° NNW 05:27:53 48° W 05:32:10 10° SSW
CZ-4B R/B 3.0 05:24:35 10° NNE 05:28:54 84° ESE 05:32:57 10° SSW
BREEZE-M DEB (TANK) 4.5 05:18:56 10° WNW 05:29:38 30° WSW 05:33:26 10° S
Cosmos 2333 Rocket 3.6 05:26:50 10° NNW 05:32:16 44° NE 05:37:40 10° SE
SL-16 R/B 3.1 05:28:55 10° NW 05:33:33 26° WSW 05:38:10 10° SSW
Cosmos 1470 3.4 05:30:08 10° NNW 05:33:50 36° W 05:37:29 10° SSW
Cosmos 841 Rocket 4.0 05:29:02 10° SW 05:33:58 43° WNW 05:38:57 10° NNE
Cosmos 2082 Rocket 4.2 05:32:30 10° WNW 05:35:55 16° NW 05:39:22 10° N
Cosmos 1602 Rocket 4.1 05:32:25 10° SW 05:36:31 41° WNW 05:40:37 10° N
COSMOS 2428 3.1 05:31:59 10° NNW 05:37:41 72° ENE 05:43:21 10° SE
Cosmos 2333 4.5 05:33:15 10° NNW 05:38:53 76° ENE 05:44:29 10° SSE
